KOMPSAT 5

导读 | 星芒AI

KOMPSAT 5(韩国多用途卫星5号)是韩国自主研发的雷达遥感卫星,由韩国航空宇宙研究院(KARI)负责开发与运营。该卫星于2013年发射,搭载合成孔径雷达(SAR)和高分辨率光学传感器,可在全天候、全天时条件下获取地球表面图像。KOMPSAT 5主要用于国土监测、灾害预警、环境评估及军事侦察等领域,提升了韩国在地球观测和空间技术方面的自主能力。

基本信息
目录编号:
39227
目录名称:
KOMPSAT 5
国际标识:
2013-042A
轨道中心:
EARTH
卫星名称:
KOMPSAT 5
卫星全名:
--
卫星状态:
在轨 (已飞行4451 天)
发射日期:
2013-08-22 UTC
国别 :
韩国 (KR)
星等 :
--
轨道信息
数据来源 国际轨道数据 AOE轨道数据
星历时间 2025-10-29T20:21:42+0800
4小时前
查看轨道信息
2025-10-29T08:00:00+0800
17小时前
查看轨道信息
半长轴 6931.235km 6931.193km
偏心率 0.0002499 0.0003471
轨道倾角 97.620° 97.619°
近地点辐角 163.077° 164.739°
升交点赤经 127.443° 126.934°
平近点角 197.054° 287.475°
近地点 551.367km 550.652km
远地点 554.833km 555.464km
周期 95.714分钟 95.713分钟
每日圈数 15.044816 15.044954
详细信息
使用方式:
暂无
2D轨道图
3D轨道图
轨道高度分析图
轨道倾角分析图
轨道综合分析图
查看轨道综合分析图